RH
47 91 94 75 63 41 73 95 100 97 100 91 93 74 82 72 69 73 75 72 65 56 50 46 40 41 48 50 61 55 47 44 42 38 37 42 40 38 39 41 45 63 66 65 62 57 60 56 48
10 24 70 80 72 59 47 98 92 98 97 100 98 98 94 72 68 81 76 64 66 58 51 47 43 39 40 47 60 56 49 44 46 43 42 39 42 43 48 47 50 59 68 68 72 68 66 60 49
8 12 24 92 90 89 47 95 84 100 100 100 100 97 83 91 87 79 69 59 73 64 48 42 43 47 43 46 58 60 53 51 52 54 46 42 39 44 58 65 65 67 67 78 80 81 70 60 48
8 8 12 83 100 94 62 75 90 74 98 100 100 99 88 72 88 77 86 73 78 72 54 46 46 48 51 52 51 55 55 72 76 56 46 35 33 37 53 58 75 88 76 79 90 84 73 62 51
8 7 10 32 100 100 90 60 63 52 64 89 100 100 90 94 85 67 78 80 84 96 76 56 50 50 54 50 48 47 49 56 58 56 47 32 31 30 28 29 40 96 90 85 85 78 71 62 51
9 8 8 13 56 100 100 83 70 81 54 55 96 100 100 99 93 86 71 91 81 92 97 72 52 50 53 51 51 48 50 53 90 71 48 30 24 25 27 39 38 56 100 97 85 73 63 58 51
10 9 8 13 25 77 100 100 99 93 64 60 99 100 96 100 90 90 66 83 96 100 100 100 90 49 46 48 51 56 58 68 99 77 46 32 24 25 26 42 44 42 78 96 83 68 59 55 50
12 9 10 14 18 40 73 90 100 99 78 94 100 100 100 100 100 88 68 80 97 100 100 100 100 73 51 52 51 53 59 66 85 73 46 32 28 25 26 30 51 48 53 64 69 63 58 52 46
12 10 10 14 17 17 30 51 71 99 75 99 81 100 100 100 100 95 79 73 76 100 100 100 100 100 88 61 62 58 56 53 67 65 49 33 30 26 26 26 33 55 61 61 63 62 58 54 50
10 12 15 17 18 12 12 16 26 93 87 100 95 83 100 100 100 97 98 99 94 76 100 100 100 100 100 91 74 70 70 55 56 61 50 34 31 28 28 26 27 31 44 53 53 52 50 49 50
10 11 20 16 15 14 12 12 24 36 100 99 100 100 100 100 100 91 71 96 99 84 78 100 100 100 100 100 90 90 84 70 65 64 57 42 32 29 29 31 27 26 29 33 39 39 43 47 46
11 14 16 17 16 15 15 13 22 30 66 100 100 100 100 100 100 97 97 80 100 86 84 74 98 100 100 100 96 96 92 83 76 68 67 51 40 33 30 31 33 31 30 32 35 39 42 42 40
10 12 14 19 17 18 16 16 17 20 63 95 100 100 100 100 100 100 100 91 100 100 100 98 86 89 99 92 100 100 100 98 95 90 84 76 57 46 42 34 34 36 36 39 40 42 44 46 48
10 13 15 20 20 16 19 19 14 16 34 58 97 91 99 100 100 100 100 100 100 100 100 100 92 85 86 100 100 100 100 100 100 100 99 94 82 66 53 45 41 42 44 42 40 42 44 47 47
11 13 16 19 20 18 17 16 18 15 16 23 40 84 98 100 100 100 100 100 100 100 100 100 98 100 95 80 89 100 100 100 100 100 100 100 95 90 90 73 61 50 42 47 46 45 48 50 55
10 12 10 17 18 21 19 20 23 13 17 19 25 62 91 95 100 100 100 100 100 100 100 100 100 98 92 99 99 98 100 100 100 100 100 100 100 100 100 95 92 84 70 59 56 55 57 61 59
10 12 12 16 24 17 20 21 20 20 19 20 20 32 46 42 100 100 100 100 100 100 100 100 100 100 97 95 100 100 100 100 100 100 100 100 100 100 100 77 68 68 71 78 82 83 78 74 72
12 13 12 13 17 18 20 23 20 26 19 19 20 22 29 35 73 100 100 100 100 100 100 100 100 100 100 100 100 100 97 100 100 100 100 100 92 87 73 61 61 54 54 60 73 84 90 89 91
18 19 12 15 16 19 23 22 21 20 25 26 20 26 24 40 71 79 100 100 100 100 100 100 100 100 100 100 100 100 100 100 100 100 100 100 86 80 73 69 68 66 73 72 73 66 74 80 86
16 19 19 17 16 21 22 22 22 23 22 60 30 22 26 38 50 64 100 100 100 100 100 100 100 100 100 100 100 100 100 100 100 100 100 100 96 93 87 71 71 71 72 70 77 75 82 93 95
14 15 13 14 13 13 19 23 23 27 25 29 76 30 24 30 34 60 96 100 100 100 100 100 100 100 100 100 100 100 100 100 100 100 100 100 99 92 95 100 98 90 86 81 94 90 99 98 100
13 17 15 15 14 18 19 25 24 26 29 26 39 73 34 26 19 22 54 81 100 100 100 100 100 100 100 100 100 100 100 100 100 100 100 99 94 83 83 89 89 98 99 96 91 94 99 92 100
15 15 15 15 17 19 20 26 27 27 31 29 30 38 59 71 25 21 41 53 46 66 89 94 100 100 100 100 100 100 100 100 100 100 100 100 100 100 100 100 94 94 94 94 98 95 96 92 100
16 19 19 21 17 17 23 29 29 28 33 29 30 28 29 35 98 57 27 88 73 78 75 98 100 100 100 100 100 100 100 100 100 100 100 100 100 100 100 100 100 100 95 95 100 100 100 100 100
16 17 18 20 17 21 26 29 29 31 31 31 30 28 27 26 26 64 86 66 72 70 90 96 100 100 100 100 100 100 100 100 100 100 100 100 100 100 100 100 100 100 100 100 100 100 100 100 100
17 19 19 22 24 25 26 27 32 31 31 28 26 29 28 26 25 25 39 100 100 80 49 78 100 100 100 100 100 100 100 100 100 100 100 100 100 100 100 100 100 100 100 100 100 100 100 100 100
16 17 19 22 24 23 24 21 24 25 30 27 27 30 30 29 28 24 26 27 90 100 100 71 55 83 100 100 100 100 100 100 100 100 100 100 100 100 100 100 100 100 100 100 100 100 100 100 100
16 18 22 24 24 25 26 21 19 17 21 26 27 26 28 29 30 31 29 26 26 33 81 100 100 85 66 87 100 100 100 100 100 100 100 100 100 100 100 100 100 100 100 100 100 100 100 100 100
20 20 22 23 24 24 24 24 24 22 21 21 26 26 26 26 27 28 30 32 28 27 28 30 50 85 88 56 42 58 63 73 84 84 84 81 75 68 68 84 96 100 100 100 100 100 100 100 100
23 22 21 21 22 21 21 25 29 27 28 24 23 22 25 28 28 27 27 28 30 32 29 27 26 27 28 29 29 26 26 23 24 24 25 26 25 23 26 31 39 40 50 69 85 95 100 100 100
Wind_Speed
111 114 109 101 93 86 83 81 77 74 71 68 65 67 63 57 54 49 48 46 44 41 40 39 39 39 38 35 36 36 34 35 36 34 34 33 32 33 33 30 28 28 28 29 29 29 28 28 29
104 109 113 107 100 90 87 86 82 75 71 69 70 68 65 62 60 56 51 46 46 42 41 40 39 38 37 35 36 38 38 37 37 39 38 34 31 32 31 31 30 30 29 28 29 30 30 30 31
105 109 109 105 100 94 88 86 83 79 73 79 75 71 64 63 59 56 52 48 45 44 43 42 40 38 39 38 36 38 39 40 38 36 31 30 30 29 28 28 30 30 30 28 30 31 32 32 33
101 107 105 110 94 93 89 93 87 82 79 78 76 72 67 65 63 60 55 50 46 45 45 44 42 41 40 39 40 40 39 38 38 36 31 30 29 27 28 30 30 32 31 30 31 32 34 35 35
98 104 105 106 104 97 96 98 89 83 85 83 80 73 68 68 67 60 58 56 49 46 45 46 45 44 42 42 44 43 42 40 37 34 31 30 26 26 28 30 32 33 33 32 33 35 36 38 37
98 100 104 100 104 105 106 104 91 88 87 86 80 74 72 69 70 63 60 56 53 48 46 45 46 47 46 45 44 44 42 40 39 37 32 32 28 28 29 31 32 33 35 34 35 37 38 40 39
98 97 99 97 103 113 118 101 92 92 89 85 81 78 72 71 72 70 66 60 56 52 51 50 47 47 47 46 45 43 42 40 41 38 34 35 33 30 29 30 32 33 35 34 36 39 40 41 40
98 98 102 103 106 116 115 105 102 96 91 87 84 80 77 73 72 74 71 64 60 56 54 52 52 50 48 46 42 41 41 41 43 40 37 36 37 34 31 31 31 31 33 36 39 40 42 41 42
99 96 99 101 107 111 107 106 107 102 97 90 88 83 81 81 80 74 71 68 66 61 57 56 54 54 51 48 44 41 40 40 43 38 39 38 38 37 33 32 33 34 35 37 40 42 43 44 44
98 95 100 103 109 110 100 104 105 106 100 97 90 85 83 81 80 73 75 73 71 67 60 56 55 52 53 50 47 43 42 38 41 38 37 40 40 38 38 36 35 36 38 40 42 43 44 46 45
99 96 99 105 109 104 101 98 105 107 110 102 93 88 87 82 83 80 75 72 72 71 64 60 52 51 52 52 49 46 44 40 40 40 39 41 43 41 41 39 38 39 38 39 42 43 45 46 46
100 100 102 102 103 102 103 103 110 109 108 104 103 97 90 87 85 84 84 79 68 72 70 66 59 54 52 51 51 49 47 45 42 42 40 39 43 45 45 44 42 41 41 40 40 43 44 47 49
100 99 98 100 103 104 102 106 107 105 104 105 105 101 98 93 91 88 85 80 78 72 73 71 68 61 55 54 52 50 49 48 45 43 41 41 41 45 46 47 46 44 44 43 45 46 48 50 53
100 100 101 102 102 104 107 107 105 101 109 110 109 105 101 98 94 91 88 84 83 80 75 73 70 66 62 58 55 54 50 49 48 46 44 43 44 45 47 47 49 48 47 48 50 51 52 54 56
98 101 102 104 105 103 106 107 106 102 103 108 110 108 104 100 98 95 88 83 80 80 78 75 73 71 71 67 65 59 53 53 52 53 53 49 48 49 49 47 49 52 53 53 55 56 56 57 58
95 100 103 105 103 101 103 104 107 102 100 104 107 110 106 103 99 96 93 89 87 81 79 74 73 73 72 68 66 65 60 58 56 52 51 48 51 52 52 53 52 54 56 56 57 60 60 60 61
89 96 99 103 106 107 102 105 104 102 101 103 107 109 109 107 102 97 95 93 91 84 80 79 76 75 74 73 70 69 66 61 59 53 53 52 54 53 55 56 58 59 60 61 60 61 63 65 65
82 93 97 102 104 102 100 104 103 105 102 101 105 106 107 107 105 101 97 95 94 91 89 80 78 78 76 73 72 70 70 66 64 65 64 63 61 62 64 65 64 64 67 67 65 66 65 66 67
83 91 90 93 97 100 102 104 103 105 102 102 100 103 104 107 107 105 102 100 95 94 92 89 84 83 81 77 74 74 71 71 71 69 71 70 68 70 70 69 67 66 67 67 68 72 72 71 71
86 87 95 94 97 99 100 99 100 103 101 102 101 102 103 107 110 107 104 102 101 97 91 89 88 87 83 81 78 76 73 72 74 76 74 74 73 71 73 72 70 71 72 73 72 75 74 74 72
84 88 87 91 91 90 94 95 98 103 101 101 107 103 103 104 107 108 108 107 104 102 99 90 87 90 87 82 78 76 76 73 73 74 75 77 76 75 75 74 73 75 77 76 76 78 76 78 76
79 83 83 79 82 85 88 94 96 100 102 101 105 105 102 103 103 103 105 107 107 107 104 99 93 82 89 89 85 85 80 82 81 77 71 76 79 79 78 80 81 81 80 80 81 81 80 81 79
77 77 77 78 77 82 83 89 93 96 102 104 102 105 106 104 103 104 102 105 106 105 103 103 100 99 91 92 87 89 88 87 88 86 86 83 76 75 75 79 80 82 83 83 83 83 84 85 79
72 76 74 75 75 73 78 85 90 92 101 102 100 101 104 106 107 104 100 105 107 107 106 105 105 103 101 99 99 97 97 99 97 95 92 89 88 83 81 81 81 82 84 84 83 84 84 82 82
68 70 72 74 69 70 75 80 88 89 96 100 101 98 100 103 104 106 104 101 107 109 111 108 107 106 107 105 103 102 103 102 101 101 101 99 97 94 92 88 86 84 84 85 85 86 86 87 90
64 66 68 69 69 72 76 79 85 89 94 97 98 97 98 99 101 102 103 106 105 107 107 110 113 110 109 109 109 109 109 107 105 105 105 103 101 101 99 100 99 96 93 93 91 90 93 93 94
61 61 62 64 68 69 74 78 82 87 91 93 92 95 97 97 99 98 100 104 109 114 111 109 108 110 112 112 112 112 110 110 109 108 107 108 108 108 107 106 106 105 104 102 101 100 101 102 102
57 59 61 64 67 70 72 77 79 81 84 88 89 90 93 96 97 98 99 101 102 109 112 117 116 113 109 110 115 116 116 116 115 114 114 114 114 114 112 111 112 111 111 110 108 106 107 102 103
53 56 60 63 66 70 73 72 74 77 80 83 87 89 90 91 93 95 98 100 100 102 107 112 115 116 116 112 109 111 112 114 115 116 116 117 115 114 113 113 113 113 114 114 114 114 113 114 112
51 56 58 59 63 66 69 70 73 76 79 80 83 86 87 90 91 92 92 96 100 102 103 105 106 110 112 113 112 110 111 112 110 111 112 113 111 110 110 109 110 111 110 112 115 115 113 112 111
Wind_Direction
222 225 227 226 225 224 224 223 225 224 226 228 229 230 232 233 236 236 236 237 235 236 237 239 241 244 246 251 254 257 261 266 270 273 274 276 280 277 272 272 273 272 275 278 277 280 281 282 284
221 223 225 227 224 225 224 225 224 226 227 231 228 230 228 231 233 232 233 234 235 234 238 237 241 245 248 251 254 259 263 268 274 276 276 276 278 276 271 267 268 272 274 274 276 278 279 280 283
219 220 221 221 222 224 222 224 223 224 226 227 228 229 230 232 233 235 233 232 233 234 237 238 240 245 249 251 256 262 270 274 274 278 277 272 272 270 269 267 268 268 271 272 276 275 277 278 280
219 220 221 219 218 217 221 222 221 226 226 230 229 230 231 235 232 234 232 231 231 235 237 240 243 245 249 253 255 262 268 272 275 280 277 274 271 263 267 269 267 267 269 271 272 275 276 278 281
219 217 219 219 216 214 220 223 221 225 229 230 231 230 232 233 233 236 234 232 230 235 238 241 243 246 248 252 256 259 265 269 276 278 276 274 268 268 271 271 268 265 267 270 272 274 276 278 280
217 217 218 219 217 217 221 221 220 227 231 231 231 233 229 232 234 235 234 233 230 235 240 243 244 246 249 252 254 257 263 267 272 279 273 272 267 269 273 275 272 265 265 266 269 273 275 277 280
217 216 217 217 217 218 221 221 222 226 226 226 227 228 229 233 234 235 236 233 231 235 241 245 247 247 248 250 253 256 261 266 270 276 268 270 268 268 270 276 274 265 268 268 271 274 276 279 281
217 215 214 216 218 219 221 222 224 224 226 225 223 227 231 235 235 237 237 234 233 236 239 242 246 245 246 248 253 255 258 264 268 273 265 267 270 269 271 272 275 271 268 271 273 276 278 280 280
217 216 213 216 219 223 221 222 222 222 224 224 225 224 228 229 232 235 235 237 237 238 239 243 242 244 246 246 249 254 258 261 265 268 264 264 269 271 272 273 273 273 273 273 274 277 279 279 279
216 215 213 214 217 223 220 220 220 221 222 224 227 229 227 231 232 233 235 236 238 241 240 245 245 245 246 245 246 250 256 257 263 264 264 262 265 269 271 273 272 273 274 275 276 278 278 278 279
216 215 212 214 217 220 220 219 220 221 220 222 225 228 230 230 234 235 238 239 241 241 243 244 247 247 249 245 245 247 253 256 263 266 266 264 263 266 270 271 272 272 273 277 280 280 279 280 280
215 213 213 214 217 219 219 218 218 220 222 222 225 226 226 229 231 234 239 242 241 241 242 244 245 247 249 251 251 250 253 255 259 265 267 268 268 266 269 271 271 272 275 276 278 280 281 282 284
215 213 213 214 216 216 218 219 219 220 220 221 223 224 227 227 232 235 239 242 240 242 241 242 246 248 249 252 253 253 254 257 258 261 263 267 270 270 268 270 271 273 277 279 279 279 280 282 283
215 214 214 215 215 215 216 219 220 219 219 221 223 224 226 228 230 234 237 239 240 242 244 245 246 247 248 251 252 252 252 255 259 261 263 265 268 270 270 269 271 273 274 275 277 278 280 282 283
212 213 214 215 217 216 218 218 221 219 220 223 224 224 226 227 230 232 234 237 240 240 243 246 245 246 247 249 254 253 253 254 257 260 262 264 267 270 271 273 274 274 275 276 277 278 281 283 285
211 213 216 214 218 217 218 217 222 222 219 222 224 224 225 228 230 232 233 234 239 241 244 244 247 247 248 247 250 254 255 256 256 260 260 262 265 268 271 274 275 276 277 278 281 283 283 284 285
211 214 216 215 215 217 216 219 219 224 220 222 224 224 226 228 228 230 233 235 237 238 242 244 245 246 248 249 249 252 254 256 257 258 258 259 260 263 265 272 278 280 281 280 281 284 286 287 287
210 214 216 217 216 218 218 219 219 222 224 223 224 225 227 228 229 229 232 234 237 239 240 240 245 246 248 249 250 252 256 254 257 255 255 258 260 263 267 273 275 279 281 282 283 285 285 288 291
208 215 217 218 218 218 217 219 220 222 224 227 225 226 227 228 230 231 232 234 237 240 241 244 243 244 247 249 249 252 253 254 255 256 257 259 262 266 270 274 276 277 278 280 282 285 285 288 290
208 210 217 216 218 218 219 219 219 222 223 225 229 227 228 229 230 231 233 235 237 238 241 244 245 246 247 249 250 252 253 255 258 260 262 265 266 269 270 274 274 276 276 278 281 282 285 287 288
209 213 217 217 220 219 219 220 220 221 223 222 227 230 229 230 231 231 233 235 237 239 240 240 242 246 246 246 248 250 252 255 259 263 264 265 268 268 268 268 270 273 275 277 278 281 283 286 284
211 214 219 219 220 221 220 220 221 221 222 224 225 229 233 233 233 233 235 236 237 239 241 241 240 243 245 246 250 250 251 254 251 251 260 263 267 268 269 270 272 274 275 276 279 282 282 285 284
209 216 217 219 220 220 220 221 221 221 223 224 225 227 230 235 235 235 235 238 239 240 241 242 242 242 243 247 246 246 248 252 252 255 257 258 262 265 265 268 270 271 273 275 277 279 281 283 281
211 213 217 223 223 222 222 221 223 222 223 225 226 228 229 230 233 238 235 237 239 240 241 242 244 244 245 248 250 250 251 252 253 255 258 260 262 262 264 264 266 267 271 273 274 275 278 278 279
211 214 216 219 223 222 223 222 225 223 226 226 227 228 230 231 233 234 238 239 240 241 242 242 243 245 247 248 249 251 253 254 257 257 258 259 260 261 261 264 267 268 270 272 272 273 274 276 278
210 214 216 218 221 222 223 223 225 225 227 229 229 229 231 233 234 236 236 236 241 245 244 243 243 245 247 249 250 251 253 255 257 258 258 260 260 261 262 264 265 266 266 268 269 271 273 275 277
212 214 216 218 220 224 226 227 227 227 228 231 231 232 233 233 235 237 238 238 237 240 246 249 246 246 246 248 250 252 253 254 255 257 258 260 261 262 264 265 265 266 267 268 270 270 272 273 275
213 213 214 217 221 223 226 229 230 231 231 233 234 234 234 236 236 236 239 240 240 241 242 244 249 251 249 249 250 251 254 255 255 256 258 260 261 263 264 266 267 267 267 269 271 271 273 275 277
214 216 217 219 222 224 226 230 232 234 235 235 235 237 237 237 237 238 239 240 241 242 244 245 246 248 251 253 251 253 255 256 258 259 260 261 262 262 263 265 266 267 267 267 269 271 274 275 277
216 218 220 222 225 228 231 230 233 234 236 237 238 238 238 240 240 240 240 242 242 242 244 246 247 248 250 252 254 255 257 257 258 259 260 262 264 264 265 265 266 267 269 269 270 271 274 275 278